Nett Lake, MN

1:08 PM CDT on July 27, 2016 (GMT -0500)
Orr Regional

Weather History for KORB - January, 2013

Change the Weather History Date:

Sunday, January 6, 2013

  Actual Average Record
Temperature  
Mean Temperature 12 °F -  
Max Temperature 17 °F 14 °F 42 °F (2008)
Min Temperature 6 °F 0 °F -32 °F (2014)
Degree Days  
Heating Degree Days 54    
Moisture  
Dew Point 8 °F    
Average Humidity 81    
Maximum Humidity 92    
Minimum Humidity 63    
Precipitation  
Precipitation 0.00 in - - ()
Sea Level Pressure  
Sea Level Pressure 30.00 in    
Wind  
Wind Speed 2 mph (South)    
Max Wind Speed 12 mph    
Max Gust Speed 18 mph    
Visibility 10 miles    
Events Snow    
Averages and records for this station are not official NWS values.
T = Trace of Precipitation, MM = Missing Value Source: NWS Daily Summary

Daily Weather History Graph

Daily Weather History Graph

Search for Another Location

Airport or City:

Trip Planner

Search our weather history database for the weather conditions in past years. The results will help you decide how hot, cold, wet, or windy it might be!

Date:

Astronomy

Jan. 06, 2013 Rise Set
Actual Time 8:00 AM CST 4:34 PM CST
Civil Twilight 7:24 AM CST 5:10 PM CST
Nautical Twilight 6:45 AM CST 5:49 PM CST
Astronomical Twilight 6:07 AM CST 6:27 PM CST
Moon 2:05 AM CST (1/6) 12:10 PM CST (1/6)
Length of Visible Light 9h 45m
Length of Day
8h 34m
Waning Crescent, 33% of the Moon is Illuminated
Jan 6
Waning Crescent
Jan 11
New
Jan 18
First Quarter
Jan 26
Full
Feb 3
Last Quarter

Hourly Weather History & Observations

Time (CST) Temp. Windchill Dew Point Humidity Pressure Visibility Wind Dir Wind Speed Gust Speed Precip Events Conditions
12:13 AM 15.8 °F - 12.2 °F 86% 29.94 in 10.0 mi Calm Calm - N/A   Overcast
12:33 AM 15.8 °F - 12.2 °F 86% 29.94 in 10.0 mi Calm Calm - N/A   Overcast
12:53 AM 15.8 °F - 12.2 °F 86% 29.95 in 10.0 mi Calm Calm - N/A   Overcast
1:13 AM 14.0 °F 8.2 °F 10.4 °F 86% 29.95 in 10.0 mi WNW 3.5 mph - N/A   Overcast
1:33 AM 14.0 °F 8.2 °F 10.4 °F 86% 29.96 in 10.0 mi WNW 3.5 mph - N/A   Overcast
1:53 AM 14.0 °F - 10.4 °F 86% 29.96 in 10.0 mi Calm Calm - N/A   Overcast
2:13 AM 14.0 °F - 10.4 °F 86% 29.97 in 10.0 mi Calm Calm - N/A   Overcast
2:34 AM 14.0 °F - 10.4 °F 86% 29.97 in 10.0 mi Calm Calm - N/A   Overcast
2:53 AM 12.2 °F - 10.4 °F 92% 29.98 in 10.0 mi Calm Calm - N/A   Overcast
3:13 AM 12.2 °F 4.3 °F 10.4 °F 92% 30.00 in 10.0 mi NW 4.6 mph - N/A   Overcast
3:33 AM 12.2 °F - 8.6 °F 85% 30.00 in 7.0 mi Calm Calm - N/A Snow Light Snow
3:53 AM 12.2 °F 6.1 °F 8.6 °F 85% 30.00 in 7.0 mi WNW 3.5 mph - N/A Snow Light Snow
4:13 AM 10.4 °F 4.0 °F 8.6 °F 92% 30.00 in 10.0 mi NW 3.5 mph - N/A Snow Light Snow
4:33 AM 10.4 °F - 8.6 °F 92% 30.01 in 10.0 mi Calm Calm - N/A   Overcast
4:53 AM 10.4 °F 4.0 °F 6.8 °F 85% 30.02 in 10.0 mi NNW 3.5 mph - N/A Snow Light Snow
5:13 AM 10.4 °F - 6.8 °F 85% 30.02 in 10.0 mi Calm Calm - N/A Snow Light Snow
5:33 AM 10.4 °F - 6.8 °F 85% 30.03 in 10.0 mi Calm Calm - N/A Snow Light Snow
5:53 AM 10.4 °F 4.0 °F 6.8 °F 85% 30.03 in 10.0 mi NW 3.5 mph - N/A   Overcast
6:13 AM 10.4 °F 4.0 °F 6.8 °F 85% 30.04 in 10.0 mi NW 3.5 mph - N/A Snow Light Snow
6:33 AM 10.4 °F 2.2 °F 6.8 °F 85% 30.05 in 10.0 mi WNW 4.6 mph - N/A Snow Light Snow
6:53 AM 10.4 °F - 6.8 °F 85% 30.06 in 10.0 mi Calm Calm - N/A   Overcast
7:13 AM 10.4 °F - 6.8 °F 85% 30.05 in 10.0 mi Calm Calm - N/A   Overcast
7:53 AM 8.6 °F - 6.8 °F 92% 30.07 in 10.0 mi Calm Calm - N/A   Overcast
8:13 AM 8.6 °F - 5.0 °F 85% 30.08 in 10.0 mi Calm Calm - N/A Snow Light Snow
8:34 AM 8.6 °F - 5.0 °F 85% 30.08 in 10.0 mi Calm Calm - N/A   Mostly Cloudy
8:53 AM 6.8 °F - 3.2 °F 85% 30.07 in 10.0 mi Calm Calm - N/A   Scattered Clouds
9:33 AM 6.8 °F - 3.2 °F 85% 30.09 in 10.0 mi Calm Calm - N/A   Clear
9:53 AM 6.8 °F - 3.2 °F 85% 30.09 in 10.0 mi Calm Calm - N/A   Clear
10:13 AM 8.6 °F - 5.0 °F 85% 30.09 in 10.0 mi Calm Calm - N/A   Clear
10:33 AM 8.6 °F - 5.0 °F 85% 30.10 in 10.0 mi Calm Calm - N/A   Clear
10:53 AM 10.4 °F - 6.8 °F 85% 30.09 in 10.0 mi Calm Calm - N/A   Clear
11:14 AM 10.4 °F - 6.8 °F 85% 30.09 in 10.0 mi Calm Calm - N/A   Clear
11:33 AM 10.4 °F - 6.8 °F 85% 30.09 in 10.0 mi Calm Calm - N/A   Clear
11:53 AM 10.4 °F 4.0 °F 8.6 °F 92% 30.08 in 10.0 mi NW 3.5 mph - N/A   Clear
12:13 PM 12.2 °F 6.1 °F 8.6 °F 85% 30.08 in 10.0 mi NW 3.5 mph - N/A   Clear
12:33 PM 12.2 °F - 8.6 °F 85% 30.06 in 10.0 mi Calm Calm - N/A   Clear
12:53 PM 14.0 °F - 8.6 °F 79% 30.05 in 10.0 mi Calm Calm - N/A   Clear
1:13 PM 14.0 °F - 8.6 °F 79% 30.06 in 10.0 mi Calm Calm - N/A   Clear
1:33 PM 14.0 °F - 8.6 °F 79% 30.05 in 10.0 mi Calm Calm - N/A   Clear
1:53 PM 15.8 °F - 8.6 °F 73% 30.05 in 10.0 mi Calm Calm - N/A   Clear
2:13 PM 17.6 °F - 8.6 °F 68% 30.04 in 10.0 mi Calm Calm - N/A   Clear
2:33 PM 17.6 °F - 6.8 °F 63% 30.05 in 10.0 mi Calm Calm - N/A   Clear
2:53 PM 17.6 °F - 8.6 °F 68% 30.05 in 10.0 mi Calm Calm - N/A   Clear
3:13 PM 17.6 °F 12.3 °F 8.6 °F 68% 30.04 in 10.0 mi SSE 3.5 mph - N/A   Clear
3:33 PM 17.6 °F 12.3 °F 8.6 °F 68% 30.05 in 10.0 mi South 3.5 mph - N/A   Clear
3:53 PM 15.8 °F 8.6 °F 8.6 °F 73% 30.04 in 10.0 mi SE 4.6 mph - N/A   Clear
4:13 PM 15.8 °F 10.2 °F 8.6 °F 73% 30.02 in 10.0 mi SE 3.5 mph - N/A   Clear
4:53 PM 14.0 °F - 8.6 °F 79% 30.02 in 10.0 mi Calm Calm - N/A   Clear
5:13 PM 12.2 °F 6.1 °F 6.8 °F 79% 30.00 in 10.0 mi SE 3.5 mph - N/A   Clear
5:33 PM 12.2 °F 6.1 °F 6.8 °F 79% 30.00 in 10.0 mi SE 3.5 mph - N/A   Clear
5:53 PM 12.2 °F 2.9 °F 6.8 °F 79% 29.98 in 10.0 mi SE 5.8 mph - N/A   Clear
6:13 PM 12.2 °F 6.1 °F 6.8 °F 79% 29.98 in 10.0 mi SE 3.5 mph - N/A   Clear
6:33 PM 12.2 °F 4.3 °F 6.8 °F 79% 29.97 in 10.0 mi SSE 4.6 mph - N/A   Clear
6:53 PM 12.2 °F 2.9 °F 6.8 °F 79% 29.97 in 10.0 mi SSE 5.8 mph - N/A   Clear
7:13 PM 12.2 °F 2.9 °F 6.8 °F 79% 29.97 in 10.0 mi SSE 5.8 mph - N/A   Clear
7:33 PM 12.2 °F 2.9 °F 6.8 °F 79% 29.96 in 10.0 mi SSE 5.8 mph - N/A   Clear
7:53 PM 12.2 °F 1.7 °F 6.8 °F 79% 29.94 in 10.0 mi SSE 6.9 mph - N/A   Clear
8:13 PM 14.0 °F 2.0 °F 6.8 °F 73% 29.93 in 10.0 mi SSE 9.2 mph - N/A   Clear
8:34 PM 14.0 °F 1.2 °F 6.8 °F 73% 29.92 in 10.0 mi SSE 10.4 mph - N/A   Clear
8:53 PM 14.0 °F 0.5 °F 6.8 °F 73% 29.91 in 10.0 mi SSE 11.5 mph - N/A   Clear
9:53 PM 15.8 °F 3.4 °F 6.8 °F 68% 29.87 in 10.0 mi SSE 10.4 mph - N/A   Clear
10:13 PM 15.8 °F 3.4 °F 6.8 °F 68% 29.85 in 10.0 mi SSE 10.4 mph 17.3 mph N/A   Clear
10:33 PM 15.8 °F 3.4 °F 8.6 °F 73% 29.83 in 10.0 mi SSE 10.4 mph - N/A   Clear
10:54 PM 15.8 °F 2.7 °F 8.6 °F 73% 29.80 in 10.0 mi SE 11.5 mph 16.1 mph N/A   Clear
11:33 PM 15.8 °F 2.7 °F 8.6 °F 73% 29.80 in 10.0 mi SSE 11.5 mph 18.4 mph N/A   Clear
11:53 PM 15.8 °F 2.7 °F 8.6 °F 73% 29.80 in 10.0 mi South 11.5 mph 17.3 mph N/A   Clear